Time,TemperatureF,DewpointF,PressureIn,WindDirection,WindDirectionDegrees,WindSpeedMPH,WindSpeedGustMPH,Humidity,HourlyPrecipIn,Conditions,Clouds,dailyrainin,SoftwareType,DateUTC
2013-01-29 00:12:00,63.0,51.1,30.41,NE,43,4.0,-999.0,67,0.00,,,0.00,Femah Weather Statio,2013-01-28 11:12:00,
2013-01-29 00:22:00,62.6,50.4,30.41,NNE,21,6.0,-999.0,66,0.00,,,0.00,Femah Weather Statio,2013-01-28 11:22:00,
2013-01-29 00:32:00,62.7,51.9,30.41,NNE,26,8.0,-999.0,70,0.00,,,0.00,Femah Weather Statio,2013-01-28 11:32:00,
2013-01-29 00:42:00,62.5,51.7,30.40,NE,51,4.0,-999.0,70,0.00,,,0.00,Femah Weather Statio,2013-01-28 11:42:00,
2013-01-29 00:52:00,62.4,52.7,30.40,NNE,32,8.0,-999.0,73,0.00,,,0.00,Femah Weather Statio,2013-01-28 11:52:00,
2013-01-29 01:02:00,62.0,51.9,30.40,North,9,4.0,-999.0,72,0.00,,,0.00,Femah Weather Statio,2013-01-28 12:02:00,
2013-01-29 01:12:00,61.9,52.9,30.39,North,5,4.0,-999.0,75,0.00,,,0.00,Femah Weather Statio,2013-01-28 12:12:00,
2013-01-29 01:22:00,61.7,53.4,30.39,NNE,31,9.0,-999.0,77,0.00,,,0.00,Femah Weather Statio,2013-01-28 12:22:00,
2013-01-29 01:32:00,61.3,53.4,30.39,NNW,348,4.0,-999.0,78,0.00,,,0.00,Femah Weather Statio,2013-01-28 12:32:00,
2013-01-29 01:42:00,61.1,54.3,30.38,NW,318,8.0,-999.0,81,0.00,,,0.00,Femah Weather Statio,2013-01-28 12:42:00,
2013-01-29 01:52:00,60.9,55.1,30.38,NW,310,4.0,-999.0,84,0.00,,,0.00,Femah Weather Statio,2013-01-28 12:52:00,
2013-01-29 02:02:00,60.6,55.2,30.38,NNW,331,7.0,-999.0,85,0.00,,,0.00,Femah Weather Statio,2013-01-28 13:02:00,
2013-01-29 02:12:00,60.6,55.9,30.38,NE,46,7.0,-999.0,87,0.00,,,0.00,Femah Weather Statio,2013-01-28 13:12:00,
2013-01-29 02:22:00,60.5,55.8,30.38,North,5,9.0,-999.0,87,0.00,,,0.00,Femah Weather Statio,2013-01-28 13:22:00,
2013-01-29 02:32:00,60.3,55.6,30.38,North,350,8.0,-999.0,87,0.00,,,0.00,Femah Weather Statio,2013-01-28 13:32:00,
2013-01-29 02:42:00,60.3,55.6,30.38,NNW,348,8.0,-999.0,87,0.00,,,0.00,Femah Weather Statio,2013-01-28 13:42:00,
2013-01-29 02:52:00,60.2,55.5,30.38,North,351,11.0,-999.0,87,0.00,,,0.00,Femah Weather Statio,2013-01-28 13:52:00,
2013-01-29 03:12:00,60.1,55.8,30.39,North,11,5.0,-999.0,88,0.00,,,0.00,Femah Weather Statio,2013-01-28 14:12:00,
2013-01-29 03:22:00,59.9,55.6,30.39,NNW,344,9.0,-999.0,88,0.00,,,0.00,Femah Weather Statio,2013-01-28 14:22:00,
2013-01-29 03:32:00,58.7,52.9,30.39,NE,38,4.0,-999.0,84,0.00,,,0.00,Femah Weather Statio,2013-01-28 14:32:00,
2013-01-29 03:42:00,59.1,54.1,30.39,NNE,24,6.0,-999.0,86,0.00,,,0.00,Femah Weather Statio,2013-01-28 14:42:00,
2013-01-29 03:52:00,58.8,53.8,30.39,NNE,26,1.0,-999.0,86,0.00,,,0.00,Femah Weather Statio,2013-01-28 14:52:00,
2013-01-29 04:02:00,58.2,52.8,30.39,NE,53,0.0,-999.0,85,0.00,,,0.00,Femah Weather Statio,2013-01-28 15:02:00,
2013-01-29 04:22:00,58.3,54.0,30.39,NE,40,0.0,-999.0,88,0.00,,,0.00,Femah Weather Statio,2013-01-28 15:22:00,
2013-01-29 04:32:00,57.8,53.1,30.39,NE,42,2.0,-999.0,87,0.00,,,0.00,Femah Weather Statio,2013-01-28 15:32:00,
2013-01-29 04:42:00,57.6,52.9,30.39,NE,53,4.0,-999.0,87,0.00,,,0.00,Femah Weather Statio,2013-01-28 15:42:00,
2013-01-29 04:52:00,57.6,52.9,30.39,ENE,63,0.0,-999.0,87,0.00,,,0.00,Femah Weather Statio,2013-01-28 15:52:00,
2013-01-29 05:02:00,57.4,53.1,30.38,NNE,31,1.0,-999.0,88,0.00,,,0.00,Femah Weather Statio,2013-01-28 16:02:00,
2013-01-29 05:12:00,57.5,52.8,30.38,NE,43,5.0,-999.0,87,0.00,,,0.00,Femah Weather Statio,2013-01-28 16:12:00,
2013-01-29 05:22:00,57.5,52.8,30.38,NE,44,2.0,-999.0,87,0.00,,,0.00,Femah Weather Statio,2013-01-28 16:22:00,
2013-01-29 05:32:00,57.4,53.1,30.38,NNE,22,0.0,-999.0,88,0.00,,,0.00,Femah Weather Statio,2013-01-28 16:32:00,
2013-01-29 05:42:00,57.4,53.1,30.38,NE,34,0.0,-999.0,88,0.00,,,0.00,Femah Weather Statio,2013-01-28 16:42:00,
2013-01-29 05:52:00,57.4,53.4,30.38,ENE,61,0.0,-999.0,89,0.00,,,0.00,Femah Weather Statio,2013-01-28 16:52:00,
2013-01-29 06:02:00,57.4,53.4,30.38,North,9,0.0,-999.0,89,0.00,,,0.00,Femah Weather Statio,2013-01-28 17:02:00,
2013-01-29 06:12:00,57.0,52.7,30.38,South,171,0.0,-999.0,88,0.00,,,0.00,Femah Weather Statio,2013-01-28 17:12:00,
2013-01-29 06:22:00,57.2,53.2,30.39,South,175,0.0,-999.0,89,0.00,,,0.00,Femah Weather Statio,2013-01-28 17:22:00,
2013-01-29 06:32:00,57.4,53.4,30.39,South,175,0.0,-999.0,89,0.00,,,0.00,Femah Weather Statio,2013-01-28 17:32:00,
2013-01-29 06:42:00,57.5,53.2,30.39,South,175,0.0,-999.0,88,0.00,,,0.00,Femah Weather Statio,2013-01-28 17:42:00,
2013-01-29 06:52:00,57.6,53.3,30.39,South,175,0.0,-999.0,88,0.00,,,0.00,Femah Weather Statio,2013-01-28 17:52:00,
2013-01-29 07:02:00,57.6,53.3,30.39,South,175,0.0,-999.0,88,0.00,,,0.00,Femah Weather Statio,2013-01-28 18:02:00,
2013-01-29 07:12:00,58.0,53.3,30.39,ESE,114,0.0,-999.0,87,0.00,,,0.00,Femah Weather Statio,2013-01-28 18:12:00,
2013-01-29 07:22:00,58.3,53.6,30.39,ESE,107,0.0,-999.0,87,0.00,,,0.00,Femah Weather Statio,2013-01-28 18:22:00,
2013-01-29 07:32:00,58.6,53.9,30.39,ESE,107,0.0,-999.0,87,0.00,,,0.00,Femah Weather Statio,2013-01-28 18:32:00,
2013-01-29 07:42:00,58.8,54.1,30.38,ESE,107,1.0,-999.0,87,0.00,,,0.00,Femah Weather Statio,2013-01-28 18:42:00,
2013-01-29 07:52:00,59.1,54.1,30.37,ENE,71,1.0,-999.0,86,0.00,,,0.00,Femah Weather Statio,2013-01-28 18:52:00,
2013-01-29 08:12:00,61.9,55.4,30.38,North,5,5.0,-999.0,82,0.00,,,0.00,Femah Weather Statio,2013-01-28 19:12:00,
2013-01-29 08:22:00,62.2,55.4,30.37,NNE,26,4.0,-999.0,81,0.00,,,0.00,Femah Weather Statio,2013-01-28 19:22:00,
2013-01-29 08:32:00,62.4,55.6,30.38,North,10,4.0,-999.0,81,0.00,,,0.00,Femah Weather Statio,2013-01-28 19:32:00,
2013-01-29 08:42:00,62.4,55.2,30.37,North,360,3.0,-999.0,80,0.00,,,0.00,Femah Weather Statio,2013-01-28 19:42:00,
2013-01-29 08:52:00,62.8,55.2,30.37,NNE,20,3.0,-999.0,79,0.00,,,0.00,Femah Weather Statio,2013-01-28 19:52:00,
2013-01-29 09:02:00,62.9,55.7,30.38,North,5,2.0,-999.0,80,0.00,,,0.00,Femah Weather Statio,2013-01-28 20:02:00,
2013-01-29 09:12:00,63.2,55.6,30.37,NNE,23,6.0,-999.0,79,0.00,,,0.00,Femah Weather Statio,2013-01-28 20:12:00,
2013-01-29 09:22:00,63.1,55.5,30.38,NNE,24,3.0,-999.0,79,0.00,,,0.00,Femah Weather Statio,2013-01-28 20:22:00,
2013-01-29 09:32:00,63.1,55.9,30.38,NNE,23,1.0,-999.0,80,0.00,,,0.00,Femah Weather Statio,2013-01-28 20:32:00,
2013-01-29 09:42:00,63.1,55.5,30.38,NNE,19,2.0,-999.0,79,0.00,,,0.00,Femah Weather Statio,2013-01-28 20:42:00,
2013-01-29 09:52:00,63.3,55.7,30.37,NNE,27,5.0,-999.0,79,0.00,,,0.00,Femah Weather Statio,2013-01-28 20:52:00,
2013-01-29 10:02:00,63.7,56.1,30.37,NNE,23,2.0,-999.0,79,0.00,,,0.00,Femah Weather Statio,2013-01-28 21:02:00,
2013-01-29 10:12:00,64.3,56.4,30.36,NNE,23,3.0,-999.0,78,0.00,,,0.00,Femah Weather Statio,2013-01-28 21:12:00,
2013-01-29 10:22:00,65.0,56.7,30.36,NNE,33,3.0,-999.0,77,0.00,,,0.00,Femah Weather Statio,2013-01-28 21:22:00,
2013-01-29 10:32:00,65.5,56.5,30.36,North,355,3.0,-999.0,75,0.00,,,0.00,Femah Weather Statio,2013-01-28 21:32:00,
2013-01-29 10:42:00,65.3,56.7,30.36,NNE,18,3.0,-999.0,76,0.00,,,0.00,Femah Weather Statio,2013-01-28 21:42:00,
2013-01-29 10:52:00,65.7,57.1,30.36,North,360,4.0,-999.0,76,0.00,,,0.00,Femah Weather Statio,2013-01-28 21:52:00,
2013-01-29 11:02:00,66.7,57.3,30.36,ENE,61,2.0,-999.0,74,0.00,,,0.00,Femah Weather Statio,2013-01-28 22:02:00,
2013-01-29 11:12:00,67.6,56.8,30.35,WNW,302,3.0,-999.0,70,0.00,,,0.00,Femah Weather Statio,2013-01-28 22:12:00,
2013-01-29 11:22:00,67.6,57.5,30.35,NW,325,2.0,-999.0,72,0.00,,,0.00,Femah Weather Statio,2013-01-28 22:22:00,
2013-01-29 11:32:00,68.2,57.8,30.34,NNW,341,3.0,-999.0,71,0.00,,,0.00,Femah Weather Statio,2013-01-28 22:32:00,
2013-01-29 11:42:00,68.5,58.4,30.34,NNE,17,7.0,-999.0,72,0.00,,,0.00,Femah Weather Statio,2013-01-28 22:42:00,
2013-01-29 11:52:00,68.3,58.2,30.33,NE,46,3.0,-999.0,72,0.00,,,0.00,Femah Weather Statio,2013-01-28 22:52:00,
2013-01-29 12:02:00,68.4,58.3,30.33,NNE,13,9.0,-999.0,72,0.00,,,0.00,Femah Weather Statio,2013-01-28 23:02:00,
2013-01-29 12:12:00,67.5,57.8,30.33,NNE,23,5.0,-999.0,73,0.00,,,0.00,Femah Weather Statio,2013-01-28 23:12:00,
2013-01-29 12:22:00,66.5,57.5,30.33,North,350,10.0,-999.0,75,0.00,,,0.00,Femah Weather Statio,2013-01-28 23:22:00,
2013-01-29 12:32:00,67.0,58.4,30.33,North,5,4.0,-999.0,76,0.00,,,0.00,Femah Weather Statio,2013-01-28 23:32:00,
2013-01-29 12:42:00,67.1,57.7,30.33,NNE,30,8.0,-999.0,74,0.00,,,0.00,Femah Weather Statio,2013-01-28 23:42:00,
2013-01-29 12:52:00,66.8,57.8,30.33,North,9,9.0,-999.0,75,0.00,,,0.00,Femah Weather Statio,2013-01-28 23:52:00,
2013-01-29 13:02:00,67.0,58.0,30.33,NNW,334,8.0,-999.0,75,0.00,,,0.00,Femah Weather Statio,2013-01-29 00:02:00,
2013-01-29 13:12:00,67.0,58.4,30.33,NNE,16,10.0,-999.0,76,0.00,,,0.00,Femah Weather Statio,2013-01-29 00:12:00,
2013-01-29 13:32:00,66.8,57.8,30.32,North,5,12.0,-999.0,75,0.00,,,0.00,Femah Weather Statio,2013-01-29 00:32:00,
2013-01-29 13:42:00,66.6,58.0,30.32,NNE,14,10.0,-999.0,76,0.00,,,0.00,Femah Weather Statio,2013-01-29 00:42:00,
2013-01-29 13:52:00,67.2,58.9,30.32,NNE,29,5.0,-999.0,77,0.00,,,0.00,Femah Weather Statio,2013-01-29 00:52:00,
2013-01-29 14:02:00,67.9,59.3,30.31,North,355,7.0,-999.0,76,0.00,,,0.00,Femah Weather Statio,2013-01-29 01:02:00,
2013-01-29 14:12:00,67.8,58.8,30.31,NW,315,7.0,-999.0,75,0.00,,,0.00,Femah Weather Statio,2013-01-29 01:12:00,
2013-01-29 14:22:00,67.2,58.6,30.31,North,355,10.0,-999.0,76,0.00,,,0.00,Femah Weather Statio,2013-01-29 01:22:00,
2013-01-29 14:32:00,66.7,58.4,30.31,North,355,12.0,-999.0,77,0.00,,,0.00,Femah Weather Statio,2013-01-29 01:32:00,
2013-01-29 14:42:00,66.4,58.1,30.31,NNE,12,11.0,-999.0,77,0.00,,,0.00,Femah Weather Statio,2013-01-29 01:42:00,
2013-01-29 14:52:00,66.1,58.2,30.31,NE,38,8.0,-999.0,78,0.00,,,0.00,Femah Weather Statio,2013-01-29 01:52:00,
2013-01-29 15:02:00,65.8,58.2,30.31,NE,34,13.0,-999.0,79,0.00,,,0.00,Femah Weather Statio,2013-01-29 02:02:00,
2013-01-29 15:12:00,65.7,58.1,30.31,NE,48,9.0,-999.0,79,0.00,,,0.00,Femah Weather Statio,2013-01-29 02:12:00,
2013-01-29 15:22:00,65.6,58.0,30.31,North,355,8.0,-999.0,79,0.00,,,0.00,Femah Weather Statio,2013-01-29 02:22:00,
2013-01-29 15:32:00,65.5,58.3,30.30,NE,42,9.0,-999.0,80,0.00,,,0.00,Femah Weather Statio,2013-01-29 02:32:00,
2013-01-29 15:42:00,65.5,58.3,30.30,NNE,17,6.0,-999.0,80,0.00,,,0.00,Femah Weather Statio,2013-01-29 02:42:00,
2013-01-29 15:52:00,65.5,58.7,30.30,NNE,15,11.0,-999.0,81,0.00,,,0.00,Femah Weather Statio,2013-01-29 02:52:00,
2013-01-29 16:02:00,66.0,58.8,30.29,NNW,340,12.0,-999.0,80,0.00,,,0.00,Femah Weather Statio,2013-01-29 03:02:00,
2013-01-29 16:12:00,65.9,58.3,30.29,NNW,329,7.0,-999.0,79,0.00,,,0.00,Femah Weather Statio,2013-01-29 03:12:00,
2013-01-29 16:22:00,65.4,58.2,30.29,North,11,6.0,-999.0,80,0.00,,,0.00,Femah Weather Statio,2013-01-29 03:22:00,
2013-01-29 16:32:00,65.4,58.6,30.29,North,5,8.0,-999.0,81,0.00,,,0.00,Femah Weather Statio,2013-01-29 03:32:00,
2013-01-29 16:42:00,65.2,58.0,30.30,North,5,3.0,-999.0,80,0.00,,,0.00,Femah Weather Statio,2013-01-29 03:42:00,
2013-01-29 16:52:00,65.3,58.1,30.29,NNE,19,12.0,-999.0,80,0.00,,,0.00,Femah Weather Statio,2013-01-29 03:52:00,
2013-01-29 17:22:00,64.1,58.0,30.28,North,5,7.0,-999.0,83,0.00,,,0.00,Femah Weather Statio,2013-01-29 04:22:00,
2013-01-29 17:32:00,63.7,57.6,30.27,NW,320,9.0,-999.0,83,0.00,,,0.00,Femah Weather Statio,2013-01-29 04:32:00,
2013-01-29 17:42:00,63.5,57.7,30.27,North,5,10.0,-999.0,84,0.00,,,0.00,Femah Weather Statio,2013-01-29 04:42:00,
2013-01-29 17:52:00,63.6,58.2,30.27,North,11,12.0,-999.0,85,0.00,,,0.00,Femah Weather Statio,2013-01-29 04:52:00,
2013-01-29 18:12:00,63.1,57.7,30.27,NNW,340,11.0,-999.0,85,0.00,,,0.00,Femah Weather Statio,2013-01-29 05:12:00,
2013-01-29 18:22:00,62.9,57.9,30.26,NNE,23,7.0,-999.0,86,0.00,,,0.00,Femah Weather Statio,2013-01-29 05:22:00,
2013-01-29 18:32:00,62.8,57.8,30.26,North,11,11.0,-999.0,86,0.00,,,0.00,Femah Weather Statio,2013-01-29 05:32:00,
2013-01-29 18:42:00,62.8,58.1,30.26,North,355,9.0,-999.0,87,0.00,,,0.00,Femah Weather Statio,2013-01-29 05:42:00,
2013-01-29 18:52:00,63.0,58.0,30.26,North,5,14.0,-999.0,86,0.00,,,0.00,Femah Weather Statio,2013-01-29 05:52:00,
2013-01-29 19:02:00,62.9,58.2,30.25,NNE,30,7.0,-999.0,87,0.00,,,0.00,Femah Weather Statio,2013-01-29 06:02:00,
2013-01-29 19:12:00,62.6,57.9,30.25,North,360,7.0,-999.0,87,0.00,,,0.00,Femah Weather Statio,2013-01-29 06:12:00,
2013-01-29 19:22:00,62.6,57.9,30.25,NNW,343,9.0,-999.0,87,0.00,,,0.00,Femah Weather Statio,2013-01-29 06:22:00,
2013-01-29 19:32:00,62.5,58.2,30.25,NE,45,7.0,-999.0,88,0.00,,,0.00,Femah Weather Statio,2013-01-29 06:32:00,
2013-01-29 19:42:00,62.4,58.1,30.25,NE,42,15.0,-999.0,88,0.00,,,0.00,Femah Weather Statio,2013-01-29 06:42:00,
2013-01-29 19:52:00,62.3,58.0,30.26,NNE,13,10.0,-999.0,88,0.00,,,0.00,Femah Weather Statio,2013-01-29 06:52:00,
2013-01-29 20:02:00,62.2,57.9,30.26,North,360,11.0,-999.0,88,0.00,,,0.00,Femah Weather Statio,2013-01-29 07:02:00,
2013-01-29 20:12:00,62.1,57.8,30.26,North,355,11.0,-999.0,88,0.00,,,0.00,Femah Weather Statio,2013-01-29 07:12:00,
2013-01-29 20:22:00,62.1,57.4,30.26,NE,35,9.0,-999.0,87,0.00,,,0.00,Femah Weather Statio,2013-01-29 07:22:00,
2013-01-29 20:32:00,62.1,57.4,30.27,North,355,9.0,-999.0,87,0.00,,,0.00,Femah Weather Statio,2013-01-29 07:32:00,
2013-01-29 20:42:00,62.0,57.0,30.26,NNE,24,8.0,-999.0,86,0.00,,,0.00,Femah Weather Statio,2013-01-29 07:42:00,
2013-01-29 20:52:00,62.5,55.3,30.26,North,360,11.0,-999.0,80,0.00,,,0.00,Femah Weather Statio,2013-01-29 07:52:00,
2013-01-29 21:02:00,63.1,55.2,30.27,NNW,340,6.0,-999.0,78,0.00,,,0.00,Femah Weather Statio,2013-01-29 08:02:00,
2013-01-29 21:12:00,63.6,53.2,30.26,North,5,9.0,-999.0,71,0.00,,,0.00,Femah Weather Statio,2013-01-29 08:12:00,
2013-01-29 21:22:00,63.9,53.8,30.27,NE,42,5.0,-999.0,72,0.00,,,0.00,Femah Weather Statio,2013-01-29 08:22:00,
2013-01-29 21:32:00,64.1,52.6,30.27,NNE,28,13.0,-999.0,68,0.00,,,0.00,Femah Weather Statio,2013-01-29 08:32:00,
2013-01-29 21:42:00,64.1,52.9,30.27,North,355,3.0,-999.0,69,0.00,,,0.00,Femah Weather Statio,2013-01-29 08:42:00,
2013-01-29 21:52:00,64.6,49.5,30.27,North,355,7.0,-999.0,58,0.00,,,0.00,Femah Weather Statio,2013-01-29 08:52:00,
2013-01-29 22:02:00,65.4,48.5,30.27,NE,36,2.0,-999.0,53,0.00,,,0.00,Femah Weather Statio,2013-01-29 09:02:00,
2013-01-29 22:12:00,65.8,49.2,30.28,NNW,344,7.0,-999.0,54,0.00,,,0.00,Femah Weather Statio,2013-01-29 09:12:00,
2013-01-29 22:22:00,66.0,48.0,30.27,NE,36,7.0,-999.0,50,0.00,,,0.00,Femah Weather Statio,2013-01-29 09:22:00,
2013-01-29 22:42:00,65.9,48.3,30.28,NNE,30,2.0,-999.0,51,0.00,,,0.00,Femah Weather Statio,2013-01-29 09:42:00,
2013-01-29 22:52:00,65.1,51.4,30.28,North,5,7.0,-999.0,62,0.00,,,0.00,Femah Weather Statio,2013-01-29 09:52:00,
2013-01-29 23:02:00,64.1,53.7,30.29,NNE,21,8.0,-999.0,71,0.00,,,0.00,Femah Weather Statio,2013-01-29 10:02:00,
2013-01-29 23:12:00,62.9,54.6,30.28,North,5,7.0,-999.0,77,0.00,,,0.00,Femah Weather Statio,2013-01-29 10:12:00,
2013-01-29 23:22:00,62.3,56.9,30.28,NNE,28,6.0,-999.0,85,0.00,,,0.00,Femah Weather Statio,2013-01-29 10:22:00,
2013-01-29 23:32:00,62.0,57.7,30.28,NNW,344,12.0,-999.0,88,0.00,,,0.00,Femah Weather Statio,2013-01-29 10:32:00,
2013-01-29 23:42:00,61.9,57.9,30.27,NW,313,5.0,-999.0,89,0.00,,,0.00,Femah Weather Statio,2013-01-29 10:42:00,
2013-01-29 23:52:00,61.7,57.7,30.28,NNE,20,8.0,-999.0,89,0.00,,,0.00,Femah Weather Statio,2013-01-29 10:52:00,